Time,TemperatureF,DewpointF,PressureIn,WindDirection,WindDirectionDegrees,WindSpeedMPH,WindSpeedGustMPH,Humidity,HourlyPrecipIn,Conditions,Clouds,dailyrainin,SoftwareType,DateUTC
2013-04-01 00:03:00,25.7,21.8,25.75,North,0,0.0,0.0,85,0.00,,---,0.00,VWS V13.01,2013-04-01 06:03:00,
2013-04-01 00:08:00,24.4,20.6,25.75,North,0,0.0,0.0,85,0.00,,---,0.00,VWS V13.01,2013-04-01 06:08:00,
2013-04-01 00:13:00,23.9,20.1,25.75,North,0,0.0,0.0,85,0.00,,---,0.00,VWS V13.01,2013-04-01 06:13:00,
2013-04-01 00:18:00,23.5,19.7,25.75,North,0,0.0,0.0,85,0.00,,---,0.00,VWS V13.01,2013-04-01 06:18:00,
2013-04-01 00:23:00,23.5,20.0,25.75,North,0,0.0,0.0,86,0.00,,---,0.00,VWS V13.01,2013-04-01 06:23:00,
2013-04-01 00:28:00,24.1,21.0,25.75,North,0,0.0,0.0,88,0.00,,---,0.00,VWS V13.01,2013-04-01 06:28:00,
2013-04-01 00:33:00,23.9,20.9,25.75,North,0,0.0,0.0,88,0.00,,---,0.00,VWS V13.01,2013-04-01 06:33:00,
2013-04-01 00:38:00,23.5,20.5,25.75,North,0,0.0,0.0,88,0.00,,---,0.00,VWS V13.01,2013-04-01 06:38:00,
2013-04-01 00:43:00,23.2,20.2,25.75,North,0,0.0,0.0,88,0.00,,---,0.00,VWS V13.01,2013-04-01 06:43:00,
2013-04-01 00:48:00,23.2,20.4,25.75,North,0,0.0,0.0,89,0.00,,---,0.00,VWS V13.01,2013-04-01 06:48:00,
2013-04-01 00:53:00,24.1,21.6,25.75,North,0,0.0,0.0,90,0.00,,---,0.00,VWS V13.01,2013-04-01 06:53:00,
2013-04-01 00:58:00,25.5,23.3,25.75,North,0,0.0,0.0,91,0.00,,---,0.00,VWS V13.01,2013-04-01 06:58:00,
2013-04-01 01:03:00,26.4,24.9,25.75,North,0,0.0,0.0,94,0.00,,---,0.00,VWS V13.01,2013-04-01 07:03:00,
2013-04-01 01:08:00,26.6,25.1,25.75,North,0,0.0,0.0,94,0.00,,---,0.00,VWS V13.01,2013-04-01 07:08:00,
2013-04-01 01:13:00,26.8,25.3,25.75,North,0,0.0,0.0,94,0.00,,---,0.00,VWS V13.01,2013-04-01 07:13:00,
2013-04-01 01:18:00,26.8,25.3,25.75,North,0,0.0,0.0,94,0.00,,---,0.00,VWS V13.01,2013-04-01 07:18:00,
2013-04-01 01:23:00,26.8,25.5,25.75,North,0,0.0,0.0,95,0.00,,---,0.00,VWS V13.01,2013-04-01 07:23:00,
2013-04-01 01:28:00,26.8,25.5,25.75,North,0,0.0,0.0,95,0.00,,---,0.00,VWS V13.01,2013-04-01 07:28:00,
2013-04-01 01:33:00,26.8,25.5,25.75,North,0,0.0,0.0,95,0.00,,---,0.00,VWS V13.01,2013-04-01 07:33:00,
2013-04-01 01:38:00,26.8,25.5,25.75,North,0,0.0,0.0,95,0.00,,---,0.00,VWS V13.01,2013-04-01 07:38:00,
2013-04-01 01:43:00,26.8,25.5,25.75,North,0,0.0,0.0,95,0.00,,---,0.00,VWS V13.01,2013-04-01 07:43:00,
2013-04-01 01:48:00,26.6,25.4,25.75,North,0,0.0,0.0,95,0.00,,---,0.00,VWS V13.01,2013-04-01 07:48:00,
2013-04-01 01:53:00,26.6,25.4,25.75,North,0,0.0,0.0,95,0.00,,---,0.00,VWS V13.01,2013-04-01 07:53:00,
2013-04-01 01:58:00,26.4,25.2,25.75,North,0,0.0,0.0,95,0.00,,---,0.00,VWS V13.01,2013-04-01 07:58:00,
2013-04-01 02:03:00,26.1,24.8,25.75,North,0,0.0,0.0,95,0.00,,---,0.00,VWS V13.01,2013-04-01 08:03:00,
2013-04-01 02:08:00,26.1,24.6,25.75,North,0,0.0,0.0,94,0.00,,---,0.00,VWS V13.01,2013-04-01 08:08:00,
2013-04-01 02:13:00,26.1,24.8,25.75,North,0,0.0,0.0,95,0.00,,---,0.00,VWS V13.01,2013-04-01 08:13:00,
2013-04-01 02:18:00,25.3,23.9,25.75,North,0,0.0,0.0,94,0.00,,---,0.00,VWS V13.01,2013-04-01 08:18:00,
2013-04-01 02:23:00,24.8,23.1,25.75,North,0,0.0,0.0,93,0.00,,---,0.00,VWS V13.01,2013-04-01 08:23:00,
2013-04-01 02:28:00,24.1,22.1,25.75,North,0,0.0,0.0,92,0.00,,---,0.00,VWS V13.01,2013-04-01 08:28:00,
2013-04-01 02:33:00,23.7,21.7,25.75,North,0,0.0,0.0,92,0.00,,---,0.00,VWS V13.01,2013-04-01 08:33:00,
2013-04-01 02:38:00,23.5,21.3,25.75,North,0,0.0,0.0,91,0.00,,---,0.00,VWS V13.01,2013-04-01 08:38:00,
2013-04-01 02:43:00,23.5,21.6,25.75,North,0,0.0,0.0,92,0.00,,---,0.00,VWS V13.01,2013-04-01 08:43:00,
2013-04-01 02:48:00,23.4,21.4,25.75,North,0,0.0,0.0,92,0.00,,---,0.00,VWS V13.01,2013-04-01 08:48:00,
2013-04-01 02:53:00,23.4,21.4,25.75,North,0,0.0,0.0,92,0.00,,---,0.00,VWS V13.01,2013-04-01 08:53:00,
2013-04-01 02:58:00,23.5,21.8,25.75,North,0,0.0,0.0,93,0.00,,---,0.00,VWS V13.01,2013-04-01 08:58:00,
2013-04-01 03:03:00,23.2,21.5,25.75,North,0,0.0,0.0,93,0.00,,---,0.00,VWS V13.01,2013-04-01 09:03:00,
2013-04-01 03:08:00,23.4,21.6,25.75,North,0,0.0,0.0,93,0.00,,---,0.00,VWS V13.01,2013-04-01 09:08:00,
2013-04-01 03:13:00,23.2,21.7,25.75,North,0,0.0,0.0,94,0.00,,---,0.00,VWS V13.01,2013-04-01 09:13:00,
2013-04-01 03:18:00,23.4,21.9,25.75,North,0,0.0,0.0,94,0.00,,---,0.00,VWS V13.01,2013-04-01 09:18:00,
2013-04-01 03:23:00,23.0,21.5,25.75,North,0,0.0,0.0,94,0.00,,---,0.00,VWS V13.01,2013-04-01 09:23:00,
2013-04-01 03:28:00,22.8,21.4,25.75,North,0,0.0,0.0,94,0.00,,---,0.00,VWS V13.01,2013-04-01 09:28:00,
2013-04-01 03:33:00,22.8,21.4,25.75,North,0,0.0,0.0,94,0.00,,---,0.00,VWS V13.01,2013-04-01 09:33:00,
2013-04-01 03:38:00,22.6,21.2,25.75,North,0,0.0,0.0,94,0.00,,---,0.00,VWS V13.01,2013-04-01 09:38:00,
2013-04-01 03:43:00,22.5,21.0,25.75,North,0,0.0,0.0,94,0.00,,---,0.00,VWS V13.01,2013-04-01 09:43:00,
2013-04-01 03:49:00,22.5,21.0,25.75,North,0,0.0,0.0,94,0.00,,---,0.00,VWS V13.01,2013-04-01 09:49:00,
2013-04-01 03:54:00,22.5,20.8,25.75,North,0,0.0,0.0,93,0.00,,---,0.00,VWS V13.01,2013-04-01 09:54:00,
2013-04-01 03:59:00,22.3,20.6,25.75,North,0,0.0,0.0,93,0.00,,---,0.00,VWS V13.01,2013-04-01 09:59:00,
2013-04-01 04:04:00,21.9,20.2,25.75,North,0,0.0,0.0,93,0.00,,---,0.00,VWS V13.01,2013-04-01 10:04:00,
2013-04-01 04:09:00,21.9,20.2,25.75,North,0,0.0,0.0,93,0.00,,---,0.00,VWS V13.01,2013-04-01 10:09:00,
2013-04-01 04:14:00,21.9,20.2,25.75,North,0,0.0,0.0,93,0.00,,---,0.00,VWS V13.01,2013-04-01 10:14:00,
2013-04-01 04:19:00,21.9,20.0,25.75,North,0,0.0,0.0,92,0.00,,---,0.00,VWS V13.01,2013-04-01 10:19:00,
2013-04-01 04:24:00,21.7,19.8,25.75,North,0,0.0,0.0,92,0.00,,---,0.00,VWS V13.01,2013-04-01 10:24:00,
2013-04-01 04:29:00,21.7,19.8,25.75,North,0,0.0,0.0,92,0.00,,---,0.00,VWS V13.01,2013-04-01 10:29:00,
2013-04-01 04:34:00,21.7,19.8,25.75,North,0,0.0,0.0,92,0.00,,---,0.00,VWS V13.01,2013-04-01 10:34:00,
2013-04-01 04:39:00,21.6,19.6,25.75,North,0,0.0,0.0,92,0.00,,---,0.00,VWS V13.01,2013-04-01 10:39:00,
2013-04-01 04:44:00,21.4,19.4,25.75,North,0,0.0,0.0,92,0.00,,---,0.00,VWS V13.01,2013-04-01 10:44:00,
2013-04-01 04:49:00,21.2,19.2,25.75,North,0,0.0,0.0,92,0.00,,---,0.00,VWS V13.01,2013-04-01 10:49:00,
2013-04-01 04:54:00,21.0,19.1,25.75,North,0,0.0,0.0,92,0.00,,---,0.00,VWS V13.01,2013-04-01 10:54:00,
2013-04-01 04:59:00,20.7,18.7,25.75,North,0,0.0,0.0,92,0.00,,---,0.00,VWS V13.01,2013-04-01 10:59:00,
2013-04-01 05:04:00,20.7,18.7,25.75,North,0,0.0,0.0,92,0.00,,---,0.00,VWS V13.01,2013-04-01 11:04:00,
2013-04-01 05:09:00,20.7,18.7,25.75,North,0,0.0,0.0,92,0.00,,---,0.00,VWS V13.01,2013-04-01 11:09:00,
2013-04-01 05:14:00,20.5,18.3,25.75,North,0,0.0,0.0,91,0.00,,---,0.00,VWS V13.01,2013-04-01 11:14:00,
2013-04-01 05:19:00,20.3,18.1,25.75,North,0,0.0,0.0,91,0.00,,---,0.00,VWS V13.01,2013-04-01 11:19:00,
2013-04-01 05:24:00,20.3,18.1,25.75,North,0,0.0,0.0,91,0.00,,---,0.00,VWS V13.01,2013-04-01 11:24:00,
2013-04-01 05:29:00,20.3,18.1,25.75,North,0,0.0,0.0,91,0.00,,---,0.00,VWS V13.01,2013-04-01 11:29:00,
2013-04-01 05:34:00,20.1,17.9,25.75,North,0,0.0,0.0,91,0.00,,---,0.00,VWS V13.01,2013-04-01 11:34:00,
2013-04-01 05:39:00,19.9,17.7,25.75,North,0,0.0,0.0,91,0.00,,---,0.00,VWS V13.01,2013-04-01 11:39:00,
2013-04-01 05:44:00,19.9,17.7,25.75,North,0,0.0,0.0,91,0.00,,---,0.00,VWS V13.01,2013-04-01 11:44:00,
2013-04-01 05:49:00,19.9,17.7,25.75,North,0,0.0,0.0,91,0.00,,---,0.00,VWS V13.01,2013-04-01 11:49:00,
2013-04-01 05:54:00,19.9,17.7,25.75,North,0,0.0,0.0,91,0.00,,---,0.00,VWS V13.01,2013-04-01 11:54:00,
2013-04-01 05:59:00,19.9,17.7,25.75,North,0,0.0,0.0,91,0.00,,---,0.00,VWS V13.01,2013-04-01 11:59:00,
2013-04-01 06:04:00,19.9,17.7,25.75,North,0,0.0,0.0,91,0.00,,---,0.00,VWS V13.01,2013-04-01 12:04:00,
2013-04-01 06:09:00,19.9,17.7,25.75,North,0,0.0,0.0,91,0.00,,---,0.00,VWS V13.01,2013-04-01 12:09:00,
2013-04-01 06:14:00,19.9,17.7,25.75,North,0,0.0,0.0,91,0.00,,---,0.00,VWS V13.01,2013-04-01 12:14:00,
2013-04-01 06:19:00,19.9,17.7,25.75,North,0,0.0,0.0,91,0.00,,---,0.00,VWS V13.01,2013-04-01 12:19:00,
2013-04-01 06:24:00,19.9,17.7,25.75,North,0,0.0,0.0,91,0.00,,---,0.00,VWS V13.01,2013-04-01 12:24:00,
2013-04-01 06:29:00,19.8,17.3,25.75,North,0,0.0,0.0,90,0.00,,---,0.00,VWS V13.01,2013-04-01 12:29:00,
2013-04-01 06:34:00,19.8,17.3,25.75,North,0,0.0,0.0,90,0.00,,---,0.00,VWS V13.01,2013-04-01 12:34:00,
2013-04-01 06:39:00,19.8,17.3,25.75,North,0,0.0,0.0,90,0.00,,---,0.00,VWS V13.01,2013-04-01 12:39:00,
2013-04-01 06:44:00,19.6,17.1,25.75,North,0,0.0,0.0,90,0.00,,---,0.00,VWS V13.01,2013-04-01 12:44:00,
2013-04-01 06:49:00,19.8,17.3,25.75,North,0,0.0,0.0,90,0.00,,---,0.00,VWS V13.01,2013-04-01 12:49:00,
2013-04-01 06:54:00,19.8,17.3,25.75,North,0,0.0,0.0,90,0.00,,---,0.00,VWS V13.01,2013-04-01 12:54:00,
2013-04-01 06:59:00,19.8,17.3,25.75,North,0,0.0,0.0,90,0.00,,---,0.00,VWS V13.01,2013-04-01 12:59:00,
2013-04-01 07:04:00,19.8,17.3,25.75,North,0,0.0,0.0,90,0.00,,---,0.00,VWS V13.01,2013-04-01 13:04:00,
2013-04-01 07:09:00,20.1,17.7,25.75,North,0,0.0,0.0,90,0.00,,---,0.00,VWS V13.01,2013-04-01 13:09:00,
2013-04-01 07:14:00,20.3,17.8,25.75,North,0,0.0,0.0,90,0.00,,---,0.00,VWS V13.01,2013-04-01 13:14:00,
2013-04-01 07:19:00,20.7,18.2,25.75,North,0,0.0,0.0,90,0.00,,---,0.00,VWS V13.01,2013-04-01 13:19:00,
2013-04-01 07:24:00,20.8,18.6,25.75,North,0,0.0,0.0,91,0.00,,---,0.00,VWS V13.01,2013-04-01 13:24:00,
2013-04-01 07:29:00,21.0,18.8,25.75,North,0,0.0,0.0,91,0.00,,---,0.00,VWS V13.01,2013-04-01 13:29:00,
2013-04-01 07:34:00,21.2,19.0,25.75,North,0,0.0,0.0,91,0.00,,---,0.00,VWS V13.01,2013-04-01 13:34:00,
2013-04-01 07:39:00,21.6,19.1,25.75,North,0,0.0,0.0,90,0.00,,---,0.00,VWS V13.01,2013-04-01 13:39:00,
2013-04-01 07:44:00,21.9,19.4,25.75,North,0,0.0,0.0,90,0.00,,---,0.00,VWS V13.01,2013-04-01 13:44:00,
2013-04-01 07:49:00,22.3,20.1,25.75,North,0,0.0,0.0,91,0.00,,---,0.00,VWS V13.01,2013-04-01 13:49:00,
2013-04-01 07:54:00,22.8,20.6,25.75,North,0,0.0,0.0,91,0.00,,---,0.00,VWS V13.01,2013-04-01 13:54:00,
2013-04-01 07:59:00,24.1,22.4,25.75,North,0,0.0,0.0,93,0.00,,---,0.00,VWS V13.01,2013-04-01 13:59:00,
2013-04-01 08:04:00,27.9,27.1,25.75,North,0,0.0,0.0,97,0.00,,---,0.00,VWS V13.01,2013-04-01 14:04:00,
2013-04-01 08:09:00,30.2,29.7,25.75,North,0,0.0,0.0,98,0.00,,---,0.00,VWS V13.01,2013-04-01 14:09:00,
2013-04-01 08:14:00,33.4,32.9,25.75,North,0,0.0,0.0,98,0.00,,---,0.00,VWS V13.01,2013-04-01 14:14:00,
2013-04-01 08:19:00,33.6,32.9,25.75,North,0,0.0,0.0,97,0.00,,---,0.00,VWS V13.01,2013-04-01 14:19:00,
2013-04-01 08:24:00,32.9,30.8,25.75,North,0,0.0,0.0,92,0.00,,---,0.00,VWS V13.01,2013-04-01 14:24:00,
2013-04-01 08:29:00,31.8,27.8,25.75,North,0,0.0,0.0,85,0.00,,---,0.00,VWS V13.01,2013-04-01 14:29:00,
2013-04-01 08:34:00,31.6,27.4,25.75,North,0,0.0,0.0,84,0.00,,---,0.00,VWS V13.01,2013-04-01 14:34:00,
2013-04-01 08:39:00,31.6,27.1,25.75,North,0,0.0,0.0,83,0.00,,---,0.00,VWS V13.01,2013-04-01 14:39:00,
2013-04-01 08:44:00,32.9,28.6,25.75,North,0,0.0,0.0,84,0.00,,---,0.00,VWS V13.01,2013-04-01 14:44:00,
2013-04-01 08:49:00,34.2,29.2,25.75,North,0,0.0,0.0,82,0.00,,---,0.00,VWS V13.01,2013-04-01 14:49:00,
2013-04-01 08:54:00,34.2,27.7,25.75,North,0,0.0,0.0,77,0.00,,---,0.00,VWS V13.01,2013-04-01 14:54:00,
2013-04-01 08:59:00,34.5,27.1,25.75,North,0,0.0,0.0,74,0.00,,---,0.00,VWS V13.01,2013-04-01 14:59:00,
2013-04-01 09:04:00,34.5,26.1,25.75,North,0,0.0,0.0,71,0.00,,---,0.00,VWS V13.01,2013-04-01 15:04:00,
2013-04-01 09:09:00,34.9,24.7,25.75,North,0,0.0,0.0,66,0.00,,---,0.00,VWS V13.01,2013-04-01 15:09:00,
2013-04-01 09:14:00,34.9,24.0,25.75,North,0,0.0,0.0,64,0.00,,---,0.00,VWS V13.01,2013-04-01 15:14:00,
2013-04-01 09:19:00,35.6,18.3,25.75,North,0,0.0,0.0,49,0.00,,---,0.00,VWS V13.01,2013-04-01 15:19:00,
2013-04-01 09:24:00,36.0,17.7,25.75,North,0,0.0,0.0,47,0.00,,---,0.00,VWS V13.01,2013-04-01 15:24:00,
2013-04-01 09:29:00,36.1,17.9,25.75,North,0,0.0,0.0,47,0.00,,---,0.00,VWS V13.01,2013-04-01 15:29:00,
2013-04-01 09:34:00,36.7,17.9,25.75,North,0,0.0,0.0,46,0.00,,---,0.00,VWS V13.01,2013-04-01 15:34:00,
2013-04-01 09:39:00,39.9,20.3,25.75,North,0,0.0,0.0,45,0.00,,---,0.00,VWS V13.01,2013-04-01 15:39:00,
2013-04-01 09:44:00,45.3,20.6,25.75,North,0,0.0,0.0,37,0.00,,---,0.00,VWS V13.01,2013-04-01 15:44:00,
2013-04-01 09:49:00,47.3,22.4,25.75,North,0,0.0,0.0,37,0.00,,---,0.00,VWS V13.01,2013-04-01 15:49:00,
2013-04-01 09:54:00,48.9,19.6,25.75,North,0,0.0,0.0,31,0.00,,---,0.00,VWS V13.01,2013-04-01 15:54:00,
2013-04-01 09:59:00,49.5,19.3,25.75,North,0,0.0,0.0,30,0.00,,---,0.00,VWS V13.01,2013-04-01 15:59:00,
2013-04-01 10:04:00,50.9,20.6,25.75,North,0,0.0,0.0,30,0.00,,---,0.00,VWS V13.01,2013-04-01 16:04:00,
2013-04-01 10:09:00,54.0,21.6,25.75,North,0,0.0,0.0,28,0.00,,---,0.00,VWS V13.01,2013-04-01 16:09:00,
2013-04-01 10:14:00,54.0,21.6,25.75,North,0,0.0,0.0,28,0.00,,---,0.00,VWS V13.01,2013-04-01 16:14:00,
2013-04-01 10:19:00,51.6,19.6,25.75,North,0,0.0,0.0,28,0.00,,---,0.00,VWS V13.01,2013-04-01 16:19:00,
2013-04-01 10:24:00,56.3,22.8,25.75,North,0,0.0,0.0,27,0.00,,---,0.00,VWS V13.01,2013-04-01 16:24:00,
2013-04-01 10:29:00,54.0,20.8,25.75,North,0,0.0,0.0,27,0.00,,---,0.00,VWS V13.01,2013-04-01 16:29:00,
2013-04-01 10:34:00,55.0,22.5,25.75,North,0,0.0,0.0,28,0.00,,---,0.00,VWS V13.01,2013-04-01 16:34:00,
2013-04-01 10:39:00,54.5,21.2,25.75,North,0,0.0,0.0,27,0.00,,---,0.00,VWS V13.01,2013-04-01 16:39:00,
2013-04-01 10:44:00,52.0,20.7,25.75,North,0,0.0,0.0,29,0.00,,---,0.00,VWS V13.01,2013-04-01 16:44:00,
2013-04-01 10:49:00,47.5,17.6,25.75,North,0,0.0,0.0,30,0.00,,---,0.00,VWS V13.01,2013-04-01 16:49:00,
2013-04-01 10:54:00,51.6,21.2,25.75,North,0,0.0,0.0,30,0.00,,---,0.00,VWS V13.01,2013-04-01 16:54:00,
2013-04-01 10:59:00,53.2,22.6,25.75,North,0,0.0,0.0,30,0.00,,---,0.00,VWS V13.01,2013-04-01 16:59:00,
2013-04-01 11:04:00,52.0,20.7,25.75,North,0,0.0,0.0,29,0.00,,---,0.00,VWS V13.01,2013-04-01 17:04:00,
2013-04-01 11:09:00,53.2,21.8,25.75,North,0,0.0,0.0,29,0.00,,---,0.00,VWS V13.01,2013-04-01 17:09:00,
2013-04-01 11:14:00,55.8,23.2,25.75,North,0,0.0,0.0,28,0.00,,---,0.00,VWS V13.01,2013-04-01 17:14:00,
2013-04-01 11:19:00,53.2,21.8,25.75,North,0,0.0,0.0,29,0.00,,---,0.00,VWS V13.01,2013-04-01 17:19:00,
2013-04-01 11:24:00,54.7,23.1,25.75,North,0,0.0,0.0,29,0.00,,---,0.00,VWS V13.01,2013-04-01 17:24:00,
2013-04-01 11:29:00,52.0,20.7,25.75,North,0,0.0,0.0,29,0.00,,---,0.00,VWS V13.01,2013-04-01 17:29:00,
2013-04-01 11:34:00,51.1,20.8,25.75,North,0,0.0,0.0,30,0.00,,---,0.00,VWS V13.01,2013-04-01 17:34:00,
2013-04-01 11:39:00,48.9,20.4,25.75,North,0,0.0,0.0,32,0.00,,---,0.00,VWS V13.01,2013-04-01 17:39:00,
2013-04-01 11:44:00,48.4,19.9,25.75,North,0,0.0,0.0,32,0.00,,---,0.00,VWS V13.01,2013-04-01 17:44:00,
2013-04-01 11:49:00,50.7,22.0,25.75,North,0,0.0,0.0,32,0.00,,---,0.00,VWS V13.01,2013-04-01 17:49:00,
2013-04-01 11:54:00,53.4,23.6,25.75,North,0,0.0,0.0,31,0.00,,---,0.00,VWS V13.01,2013-04-01 17:54:00,
2013-04-01 11:59:00,51.4,21.8,25.75,North,0,0.0,0.0,31,0.00,,---,0.00,VWS V13.01,2013-04-01 17:59:00,
2013-04-01 12:04:00,51.1,21.5,25.75,North,0,0.0,0.0,31,0.00,,---,0.00,VWS V13.01,2013-04-01 18:04:00,
2013-04-01 12:09:00,52.5,22.0,25.75,North,0,0.0,0.0,30,0.00,,---,0.00,VWS V13.01,2013-04-01 18:09:00,
2013-04-01 12:14:00,51.4,21.8,25.75,North,0,0.0,0.0,31,0.00,,---,0.00,VWS V13.01,2013-04-01 18:14:00,
2013-04-01 12:19:00,52.7,22.2,25.75,North,0,0.0,0.0,30,0.00,,---,0.00,VWS V13.01,2013-04-01 18:19:00,
2013-04-01 12:24:00,51.6,22.0,25.75,North,0,0.0,0.0,31,0.00,,---,0.00,VWS V13.01,2013-04-01 18:24:00,
2013-04-01 12:29:00,52.5,22.0,25.75,North,0,0.0,0.0,30,0.00,,---,0.00,VWS V13.01,2013-04-01 18:29:00,
2013-04-01 12:34:00,52.5,21.2,25.75,North,0,0.0,0.0,29,0.00,,---,0.00,VWS V13.01,2013-04-01 18:34:00,
2013-04-01 12:39:00,53.2,22.6,25.75,North,0,0.0,0.0,30,0.00,,---,0.00,VWS V13.01,2013-04-01 18:39:00,
2013-04-01 12:44:00,52.9,21.5,25.75,North,0,0.0,0.0,29,0.00,,---,0.00,VWS V13.01,2013-04-01 18:44:00,
2013-04-01 12:49:00,54.5,22.9,25.75,North,0,0.0,0.0,29,0.00,,---,0.00,VWS V13.01,2013-04-01 18:49:00,
2013-04-01 12:54:00,55.4,22.9,25.75,North,0,0.0,0.0,28,0.00,,---,0.00,VWS V13.01,2013-04-01 18:54:00,
2013-04-01 12:59:00,55.0,22.5,25.75,North,0,0.0,0.0,28,0.00,,---,0.00,VWS V13.01,2013-04-01 18:59:00,
2013-04-01 13:04:00,55.2,22.7,25.72,North,0,0.0,0.0,28,0.00,,---,0.00,VWS V13.01,2013-04-01 19:04:00,
2013-04-01 13:09:00,54.0,21.6,25.72,North,0,0.0,0.0,28,0.00,,---,0.00,VWS V13.01,2013-04-01 19:09:00,
2013-04-01 13:14:00,55.0,22.5,25.72,North,0,0.0,0.0,28,0.00,,---,0.00,VWS V13.01,2013-04-01 19:14:00,
2013-04-01 13:19:00,52.5,21.2,25.72,North,0,0.0,0.0,29,0.00,,---,0.00,VWS V13.01,2013-04-01 19:19:00,
2013-04-01 13:24:00,52.9,21.5,25.72,North,0,0.0,0.0,29,0.00,,---,0.00,VWS V13.01,2013-04-01 19:24:00,
2013-04-01 13:29:00,52.0,20.7,25.72,North,0,0.0,0.0,29,0.00,,---,0.00,VWS V13.01,2013-04-01 19:29:00,
2013-04-01 13:34:00,51.6,20.4,25.72,North,0,0.0,0.0,29,0.00,,---,0.00,VWS V13.01,2013-04-01 19:34:00,
2013-04-01 13:39:00,50.9,20.6,25.72,North,0,0.0,0.0,30,0.00,,---,0.00,VWS V13.01,2013-04-01 19:39:00,
2013-04-01 13:44:00,51.6,20.4,25.72,North,0,0.0,0.0,29,0.00,,---,0.00,VWS V13.01,2013-04-01 19:44:00,
2013-04-01 13:49:00,51.1,20.8,25.72,North,0,0.0,0.0,30,0.00,,---,0.00,VWS V13.01,2013-04-01 19:49:00,
2013-04-01 13:54:00,50.7,20.4,25.72,North,0,0.0,0.0,30,0.00,,---,0.00,VWS V13.01,2013-04-01 19:54:00,
2013-04-01 13:59:00,49.5,19.3,25.72,North,0,0.0,0.0,30,0.00,,---,0.00,VWS V13.01,2013-04-01 19:59:00,
2013-04-01 14:04:00,49.1,19.0,25.72,North,0,0.0,0.0,30,0.00,,---,0.00,VWS V13.01,2013-04-01 20:04:00,
2013-04-01 14:09:00,48.6,19.3,25.72,North,0,0.0,0.0,31,0.00,,---,0.00,VWS V13.01,2013-04-01 20:09:00,
2013-04-01 14:14:00,48.9,18.9,25.72,North,0,0.0,0.0,30,0.00,,---,0.00,VWS V13.01,2013-04-01 20:14:00,
2013-04-01 14:19:00,48.6,18.5,25.72,North,0,0.0,0.0,30,0.00,,---,0.00,VWS V13.01,2013-04-01 20:19:00,
2013-04-01 14:24:00,48.6,19.3,25.72,North,0,0.0,0.0,31,0.00,,---,0.00,VWS V13.01,2013-04-01 20:24:00,
2013-04-01 14:29:00,48.7,19.5,25.72,North,0,0.0,0.0,31,0.00,,---,0.00,VWS V13.01,2013-04-01 20:29:00,
2013-04-01 14:34:00,48.7,19.5,25.72,North,0,0.0,0.0,31,0.00,,---,0.00,VWS V13.01,2013-04-01 20:34:00,
2013-04-01 14:39:00,48.7,19.5,25.72,North,0,0.0,0.0,31,0.00,,---,0.00,VWS V13.01,2013-04-01 20:39:00,
2013-04-01 14:44:00,48.6,19.3,25.72,North,0,0.0,0.0,31,0.00,,---,0.00,VWS V13.01,2013-04-01 20:44:00,
2013-04-01 14:49:00,48.4,19.2,25.72,North,0,0.0,0.0,31,0.00,,---,0.00,VWS V13.01,2013-04-01 20:49:00,
2013-04-01 14:54:00,47.7,18.5,25.72,North,0,0.0,0.0,31,0.00,,---,0.00,VWS V13.01,2013-04-01 20:54:00,
2013-04-01 14:59:00,47.7,18.5,25.72,North,0,0.0,0.0,31,0.00,,---,0.00,VWS V13.01,2013-04-01 20:59:00,
2013-04-01 15:04:00,46.8,17.7,25.72,North,0,0.0,0.0,31,0.00,,---,0.00,VWS V13.01,2013-04-01 21:04:00,
2013-04-01 15:09:00,46.9,18.6,25.72,North,0,0.0,0.0,32,0.00,,---,0.00,VWS V13.01,2013-04-01 21:09:00,
2013-04-01 15:14:00,46.8,18.5,25.72,North,0,0.0,0.0,32,0.00,,---,0.00,VWS V13.01,2013-04-01 21:14:00,
2013-04-01 15:19:00,46.9,18.6,25.72,North,0,0.0,0.0,32,0.00,,---,0.00,VWS V13.01,2013-04-01 21:19:00,
2013-04-01 15:24:00,46.4,17.4,25.72,North,0,0.0,0.0,31,0.00,,---,0.00,VWS V13.01,2013-04-01 21:24:00,
2013-04-01 15:29:00,45.5,17.4,25.72,North,0,0.0,0.0,32,0.00,,---,0.00,VWS V13.01,2013-04-01 21:29:00,
2013-04-01 15:34:00,45.9,17.7,25.72,North,0,0.0,0.0,32,0.00,,---,0.00,VWS V13.01,2013-04-01 21:34:00,
2013-04-01 15:39:00,45.7,17.5,25.72,North,0,0.0,0.0,32,0.00,,---,0.00,VWS V13.01,2013-04-01 21:39:00,
2013-04-01 15:44:00,45.7,18.2,25.72,North,0,0.0,0.0,33,0.00,,---,0.00,VWS V13.01,2013-04-01 21:44:00,
2013-04-01 15:49:00,45.9,18.4,25.72,North,0,0.0,0.0,33,0.00,,---,0.00,VWS V13.01,2013-04-01 21:49:00,
2013-04-01 15:54:00,46.0,18.6,25.72,North,0,0.0,0.0,33,0.00,,---,0.00,VWS V13.01,2013-04-01 21:54:00,
2013-04-01 15:59:00,45.9,18.4,25.72,North,0,0.0,0.0,33,0.00,,---,0.00,VWS V13.01,2013-04-01 21:59:00,
2013-04-01 16:04:00,46.4,18.9,25.72,North,0,0.0,0.0,33,0.00,,---,0.00,VWS V13.01,2013-04-01 22:04:00,
2013-04-01 16:09:00,46.6,19.0,25.72,North,0,0.0,0.0,33,0.00,,---,0.00,VWS V13.01,2013-04-01 22:09:00,
2013-04-01 16:14:00,46.2,19.4,25.72,North,0,0.0,0.0,34,0.00,,---,0.00,VWS V13.01,2013-04-01 22:14:00,
2013-04-01 16:19:00,45.7,18.9,25.72,North,0,0.0,0.0,34,0.00,,---,0.00,VWS V13.01,2013-04-01 22:19:00,
2013-04-01 16:24:00,45.1,19.1,25.72,North,0,0.0,0.0,35,0.00,,---,0.00,VWS V13.01,2013-04-01 22:24:00,
2013-04-01 16:29:00,45.1,19.1,25.72,North,0,0.0,0.0,35,0.00,,---,0.00,VWS V13.01,2013-04-01 22:29:00,
2013-04-01 16:34:00,45.3,19.3,25.72,North,0,0.0,0.0,35,0.00,,---,0.00,VWS V13.01,2013-04-01 22:34:00,
2013-04-01 16:39:00,44.8,18.8,25.72,North,0,0.0,0.0,35,0.00,,---,0.00,VWS V13.01,2013-04-01 22:39:00,
2013-04-01 16:44:00,45.0,19.0,25.72,North,0,0.0,0.0,35,0.00,,---,0.00,VWS V13.01,2013-04-01 22:44:00,
2013-04-01 16:49:00,44.8,18.8,25.72,North,0,0.0,0.0,35,0.00,,---,0.00,VWS V13.01,2013-04-01 22:49:00,
2013-04-01 16:54:00,44.8,18.8,25.72,North,0,0.0,0.0,35,0.00,,---,0.00,VWS V13.01,2013-04-01 22:54:00,
2013-04-01 16:59:00,44.2,19.0,25.72,North,0,0.0,0.0,36,0.00,,---,0.00,VWS V13.01,2013-04-01 22:59:00,
2013-04-01 17:04:00,43.9,18.7,25.72,North,0,0.0,0.0,36,0.00,,---,0.00,VWS V13.01,2013-04-01 23:04:00,
2013-04-01 17:09:00,43.7,19.1,25.72,North,0,0.0,0.0,37,0.00,,---,0.00,VWS V13.01,2013-04-01 23:09:00,
2013-04-01 17:14:00,43.7,19.8,25.72,North,0,0.0,0.0,38,0.00,,---,0.00,VWS V13.01,2013-04-01 23:14:00,
2013-04-01 17:19:00,43.5,19.6,25.72,North,0,0.0,0.0,38,0.00,,---,0.00,VWS V13.01,2013-04-01 23:19:00,
2013-04-01 17:24:00,43.3,19.5,25.72,North,0,0.0,0.0,38,0.00,,---,0.00,VWS V13.01,2013-04-01 23:24:00,
2013-04-01 17:29:00,43.5,19.6,25.72,North,0,0.0,0.0,38,0.00,,---,0.00,VWS V13.01,2013-04-01 23:29:00,
2013-04-01 17:34:00,43.3,19.5,25.72,North,0,0.0,0.0,38,0.00,,---,0.00,VWS V13.01,2013-04-01 23:34:00,
2013-04-01 17:39:00,43.0,19.1,25.72,North,0,0.0,0.0,38,0.00,,---,0.00,VWS V13.01,2013-04-01 23:39:00,
2013-04-01 17:44:00,42.8,19.0,25.72,North,0,0.0,0.0,38,0.00,,---,0.00,VWS V13.01,2013-04-01 23:44:00,
2013-04-01 17:49:00,42.6,19.4,25.72,North,0,0.0,0.0,39,0.00,,---,0.00,VWS V13.01,2013-04-01 23:49:00,
2013-04-01 17:54:00,42.3,19.1,25.72,North,0,0.0,0.0,39,0.00,,---,0.00,VWS V13.01,2013-04-01 23:54:00,
2013-04-01 17:59:00,42.1,18.9,25.72,North,0,0.0,0.0,39,0.00,,---,0.00,VWS V13.01,2013-04-01 23:59:00,
2013-04-01 18:04:00,41.9,18.8,25.72,North,0,0.0,0.0,39,0.00,,---,0.00,VWS V13.01,2013-04-02 00:04:00,
2013-04-01 18:09:00,41.5,18.4,25.72,North,0,0.0,0.0,39,0.00,,---,0.00,VWS V13.01,2013-04-02 00:09:00,
2013-04-01 18:14:00,41.2,18.1,25.72,North,0,0.0,0.0,39,0.00,,---,0.00,VWS V13.01,2013-04-02 00:14:00,
2013-04-01 18:19:00,40.6,18.8,25.72,North,0,0.0,0.0,41,0.00,,---,0.00,VWS V13.01,2013-04-02 00:19:00,
2013-04-01 18:24:00,40.5,18.6,25.72,North,0,0.0,0.0,41,0.00,,---,0.00,VWS V13.01,2013-04-02 00:24:00,
2013-04-01 18:29:00,39.9,18.1,25.72,North,0,0.0,0.0,41,0.00,,---,0.00,VWS V13.01,2013-04-02 00:29:00,
2013-04-01 18:34:00,39.7,18.5,25.72,North,0,0.0,0.0,42,0.00,,---,0.00,VWS V13.01,2013-04-02 00:34:00,
2013-04-01 18:39:00,39.4,18.2,25.72,North,0,0.0,0.0,42,0.00,,---,0.00,VWS V13.01,2013-04-02 00:39:00,
2013-04-01 18:44:00,39.0,18.4,25.72,North,0,0.0,0.0,43,0.00,,---,0.00,VWS V13.01,2013-04-02 00:44:00,
2013-04-01 18:49:00,38.7,18.1,25.69,North,0,0.0,0.0,43,0.00,,---,0.00,VWS V13.01,2013-04-02 00:49:00,
2013-04-01 18:54:00,38.1,18.1,25.69,North,0,0.0,0.0,44,0.00,,---,0.00,VWS V13.01,2013-04-02 00:54:00,
2013-04-01 18:59:00,37.2,17.3,25.69,North,0,0.0,0.0,44,0.00,,---,0.00,VWS V13.01,2013-04-02 00:59:00,
2013-04-01 19:05:00,36.5,16.7,25.72,North,0,0.0,0.0,44,0.00,,---,0.00,VWS V13.01,2013-04-02 01:05:00,
2013-04-01 19:10:00,35.6,16.4,25.72,North,0,0.0,0.0,45,0.00,,---,0.00,VWS V13.01,2013-04-02 01:10:00,
2013-04-01 19:15:00,35.1,16.4,25.72,North,0,0.0,0.0,46,0.00,,---,0.00,VWS V13.01,2013-04-02 01:15:00,
2013-04-01 19:20:00,34.5,16.9,25.72,North,0,0.0,0.0,48,0.00,,---,0.00,VWS V13.01,2013-04-02 01:20:00,
2013-04-01 19:25:00,34.2,17.9,25.72,North,0,0.0,0.0,51,0.00,,---,0.00,VWS V13.01,2013-04-02 01:25:00,
2013-04-01 19:30:00,34.0,18.2,25.72,North,0,0.0,0.0,52,0.00,,---,0.00,VWS V13.01,2013-04-02 01:30:00,
2013-04-01 19:35:00,33.6,18.3,25.72,North,0,0.0,0.0,53,0.00,,---,0.00,VWS V13.01,2013-04-02 01:35:00,
2013-04-01 19:40:00,33.1,17.8,25.72,North,0,0.0,0.0,53,0.00,,---,0.00,VWS V13.01,2013-04-02 01:40:00,
2013-04-01 19:45:00,32.5,17.8,25.72,North,0,0.0,0.0,54,0.00,,---,0.00,VWS V13.01,2013-04-02 01:45:00,
2013-04-01 19:50:00,32.0,18.1,25.72,North,0,0.0,0.0,56,0.00,,---,0.00,VWS V13.01,2013-04-02 01:50:00,
2013-04-01 19:55:00,31.6,18.2,25.72,North,0,0.0,0.0,57,0.00,,---,0.00,VWS V13.01,2013-04-02 01:55:00,
2013-04-01 20:00:00,31.1,18.1,25.72,North,0,0.0,0.0,58,0.00,,---,0.00,VWS V13.01,2013-04-02 02:00:00,
2013-04-01 20:05:00,30.7,18.1,25.72,North,0,0.0,0.0,59,0.00,,---,0.00,VWS V13.01,2013-04-02 02:05:00,
2013-04-01 20:10:00,30.0,17.4,25.72,North,0,0.0,0.0,59,0.00,,---,0.00,VWS V13.01,2013-04-02 02:10:00,
2013-04-01 20:15:00,29.7,17.5,25.72,North,0,0.0,0.0,60,0.00,,---,0.00,VWS V13.01,2013-04-02 02:15:00,
2013-04-01 20:20:00,29.5,17.7,25.72,North,0,0.0,0.0,61,0.00,,---,0.00,VWS V13.01,2013-04-02 02:20:00,
2013-04-01 20:25:00,28.8,17.4,25.72,North,0,0.0,0.0,62,0.00,,---,0.00,VWS V13.01,2013-04-02 02:25:00,
2013-04-01 20:30:00,28.6,18.0,25.72,North,0,0.0,0.0,64,0.00,,---,0.00,VWS V13.01,2013-04-02 02:30:00,
2013-04-01 20:35:00,28.2,18.3,25.75,North,0,0.0,0.0,66,0.00,,---,0.00,VWS V13.01,2013-04-02 02:35:00,
2013-04-01 20:40:00,27.9,18.7,25.75,North,0,0.0,0.0,68,0.00,,---,0.00,VWS V13.01,2013-04-02 02:40:00,
2013-04-01 20:45:00,27.9,18.7,25.75,North,0,0.0,0.0,68,0.00,,---,0.00,VWS V13.01,2013-04-02 02:45:00,
2013-04-01 20:50:00,27.3,17.8,25.75,North,0,0.0,0.0,67,0.00,,---,0.00,VWS V13.01,2013-04-02 02:50:00,
2013-04-01 20:55:00,27.0,17.5,25.75,North,0,0.0,0.0,67,0.00,,---,0.00,VWS V13.01,2013-04-02 02:55:00,
2013-04-01 21:00:00,26.8,17.6,25.75,North,0,0.0,0.0,68,0.00,,---,0.00,VWS V13.01,2013-04-02 03:00:00,
2013-04-01 21:05:00,26.4,18.0,25.75,North,0,0.0,0.0,70,0.00,,---,0.00,VWS V13.01,2013-04-02 03:05:00,
2013-04-01 21:10:00,26.1,17.6,25.75,North,0,0.0,0.0,70,0.00,,---,0.00,VWS V13.01,2013-04-02 03:10:00,
2013-04-01 21:15:00,25.7,17.3,25.75,North,0,0.0,0.0,70,0.00,,---,0.00,VWS V13.01,2013-04-02 03:15:00,
2013-04-01 21:20:00,25.3,17.3,25.75,North,0,0.0,0.0,71,0.00,,---,0.00,VWS V13.01,2013-04-02 03:20:00,
2013-04-01 21:25:00,25.2,17.4,25.75,North,0,0.0,0.0,72,0.00,,---,0.00,VWS V13.01,2013-04-02 03:25:00,
2013-04-01 21:30:00,25.0,17.6,25.75,North,0,0.0,0.0,73,0.00,,---,0.00,VWS V13.01,2013-04-02 03:30:00,
2013-04-01 21:35:00,24.8,17.7,25.75,North,0,0.0,0.0,74,0.00,,---,0.00,VWS V13.01,2013-04-02 03:35:00,
2013-04-01 21:40:00,24.8,18.0,25.75,North,0,0.0,0.0,75,0.00,,---,0.00,VWS V13.01,2013-04-02 03:40:00,
2013-04-01 21:45:00,24.6,18.1,25.75,North,0,0.0,0.0,76,0.00,,---,0.00,VWS V13.01,2013-04-02 03:45:00,
2013-04-01 21:50:00,24.3,17.8,25.75,North,0,0.0,0.0,76,0.00,,---,0.00,VWS V13.01,2013-04-02 03:50:00,
2013-04-01 21:55:00,23.9,17.5,25.75,North,0,0.0,0.0,76,0.00,,---,0.00,VWS V13.01,2013-04-02 03:55:00,
2013-04-01 22:00:00,23.7,17.6,25.75,North,0,0.0,0.0,77,0.00,,---,0.00,VWS V13.01,2013-04-02 04:00:00,
2013-04-01 22:05:00,23.5,17.4,25.75,North,0,0.0,0.0,77,0.00,,---,0.00,VWS V13.01,2013-04-02 04:05:00,
2013-04-01 22:10:00,23.4,17.2,25.75,North,0,0.0,0.0,77,0.00,,---,0.00,VWS V13.01,2013-04-02 04:10:00,
2013-04-01 22:15:00,23.5,17.7,25.75,North,0,0.0,0.0,78,0.00,,---,0.00,VWS V13.01,2013-04-02 04:15:00,
2013-04-01 22:20:00,23.5,18.0,25.75,North,0,0.0,0.0,79,0.00,,---,0.00,VWS V13.01,2013-04-02 04:20:00,
2013-04-01 22:25:00,23.4,17.8,25.75,North,0,0.0,0.0,79,0.00,,---,0.00,VWS V13.01,2013-04-02 04:25:00,
2013-04-01 22:30:00,23.0,17.8,25.75,North,0,0.0,0.0,80,0.00,,---,0.00,VWS V13.01,2013-04-02 04:30:00,
2013-04-01 22:35:00,22.8,17.6,25.75,North,0,0.0,0.0,80,0.00,,---,0.00,VWS V13.01,2013-04-02 04:35:00,
2013-04-01 22:40:00,22.8,17.6,25.75,North,0,0.0,0.0,80,0.00,,---,0.00,VWS V13.01,2013-04-02 04:40:00,
2013-04-01 22:45:00,23.0,18.0,25.75,North,0,0.0,0.0,81,0.00,,---,0.00,VWS V13.01,2013-04-02 04:45:00,
2013-04-01 22:50:00,22.8,18.2,25.75,North,0,0.0,0.0,82,0.00,,---,0.00,VWS V13.01,2013-04-02 04:50:00,
2013-04-01 22:55:00,22.8,18.2,25.75,North,0,0.0,0.0,82,0.00,,---,0.00,VWS V13.01,2013-04-02 04:55:00,
2013-04-01 23:00:00,22.6,18.0,25.75,North,0,0.0,0.0,82,0.00,,---,0.00,VWS V13.01,2013-04-02 05:00:00,
2013-04-01 23:05:00,22.3,17.6,25.75,North,0,0.0,0.0,82,0.00,,---,0.00,VWS V13.01,2013-04-02 05:05:00,
2013-04-01 23:10:00,22.5,17.8,25.75,North,0,0.0,0.0,82,0.00,,---,0.00,VWS V13.01,2013-04-02 05:10:00,
2013-04-01 23:15:00,22.5,18.1,25.75,North,0,0.0,0.0,83,0.00,,---,0.00,VWS V13.01,2013-04-02 05:15:00,
2013-04-01 23:20:00,22.1,17.7,25.75,North,0,0.0,0.0,83,0.00,,---,0.00,VWS V13.01,2013-04-02 05:20:00,
2013-04-01 23:25:00,22.1,18.0,25.75,North,0,0.0,0.0,84,0.00,,---,0.00,VWS V13.01,2013-04-02 05:25:00,
2013-04-01 23:30:00,22.5,18.6,25.75,North,0,0.0,0.0,85,0.00,,---,0.00,VWS V13.01,2013-04-02 05:30:00,
2013-04-01 23:35:00,22.3,18.5,25.75,North,0,0.0,0.0,85,0.00,,---,0.00,VWS V13.01,2013-04-02 05:35:00,
2013-04-01 23:40:00,22.1,18.3,25.75,North,0,0.0,0.0,85,0.00,,---,0.00,VWS V13.01,2013-04-02 05:40:00,
2013-04-01 23:45:00,21.9,18.1,25.75,North,0,0.0,0.0,85,0.00,,---,0.00,VWS V13.01,2013-04-02 05:45:00,
2013-04-01 23:50:00,21.9,18.4,25.72,North,0,0.0,0.0,86,0.00,,---,0.00,VWS V13.01,2013-04-02 05:50:00,
2013-04-01 23:55:00,21.9,18.4,25.72,North,0,0.0,0.0,86,0.00,,---,0.00,VWS V13.01,2013-04-02 05:55:00,